[[{"header":{"parameterUnit":"m.s-1","parameterCategory":1,"la1":30.2991,"la2":30.254,"lo1":-89.0895,"lo2":-89.0444,"dy":0.0017,"dx":0.0017,"nx":28,"ny":28,"refTime":"2024-07-29T09:00:00:Z","depth":0,"parameterNumber":2,"parameterNumberName":"U-component_of_WINDS"},"data":[0,0,0,0,0,0,0,0,0,0,0,0,0,0,0,0,0,0,0,0,0,0,0,0,0,0,0,0,0,0,0,0,0,0,0,0,0,0,0,0,0,0,0,0,0,0,0,0,0,0,0,0,0,0,0,0,0,0,2.2645,2.2647,0,2.2779,2.2781,2.2783,2.2804,2.2803,2.2802,2.2801,2.2939,2.2944,2.2948,0,0,0,0,0,0,0,0,0,0,0,0,0,2.2407,2.2411,2.2645,2.2647,2.2648,2.2779,2.2781,2.2783,2.2804,2.2803,2.2802,2.28,2.2937,2.2943,2.2949,0,0,0,0,0,0,0,0,0,0,0,0,0,2.2523,2.2412,2.2645,2.2675,2.2679,2.2779,2.2781,2.2783,2.2805,2.2803,2.2801,2.28,2.2936,2.2943,2.295,2.3029,0,0,2.2972,2.2975,0,0,0,0,0,0,0,0,2.2516,2.2531,2.2669,2.2673,2.2678,2.2773,2.2748,2.2866,2.2805,2.2757,2.2801,2.2799,2.2885,2.2897,2.2926,2.3036,2.3041,2.2972,2.2977,2.298,2.2982,0,0,0,0,0,0,0,2.2508,2.2526,2.2698,2.2671,2.2676,2.2682,2.2696,2.277,2.2829,2.2761,2.2763,2.2779,2.2887,2.2919,2.2929,2.3044,2.2972,2.2978,2.2983,2.2986,2.3223,2.3225,0,0,0,0,0,0,2.2494,2.2519,2.2694,2.2702,2.2591,2.2687,2.2704,2.2744,2.2829,2.284,2.278,2.2779,2.2907,2.2921,2.2934,2.3031,2.298,2.2986,2.299,2.3221,2.3224,2.3226,0,0,0,0,0,0,2.2489,2.251,2.2689,2.2611,2.2634,2.2693,2.2739,2.2748,2.2779,2.2843,2.2854,2.2801,2.2906,2.2924,2.3005,2.3036,2.2989,2.2996,2.3219,2.3222,2.3225,2.3225,0,0,0,0,0,0,2.2482,2.2508,2.2539,2.2612,2.2638,2.2757,2.2741,2.2752,2.2791,2.2791,2.2865,2.2876,2.2906,2.2994,2.3012,2.3045,2.3002,2.3216,2.322,2.3224,2.3223,2.3228,2.3233,0,0,0,0,0,2.2474,2.2534,2.254,2.2561,2.2678,2.2759,2.2774,2.2808,2.2794,2.2825,2.2866,2.2874,2.303,2.3002,2.3022,2.3058,2.3214,2.3219,2.3223,2.3221,2.3227,2.3233,0,0,0,0,0,0,2.2464,2.2544,2.2552,2.2638,2.2691,2.2762,2.2803,2.2814,2.2872,2.287,2.291,2.2926,2.3004,2.304,2.3007,2.3138,2.3121,2.313,2.3112,2.3119,2.3123,2.3112,2.3008,0,0,0,0,0,2.2472,2.2531,2.2598,2.2667,2.2694,2.2743,2.278,2.2801,2.2858,2.2881,2.2928,2.2983,2.3044,2.3084,2.3144,2.3229,2.3244,2.3263,2.3268,2.3272,2.3278,2.3324,2.3332,2.3241,2.3241,2.3241,0,0,2.2489,2.254,2.2575,2.2666,2.271,2.277,2.2762,2.2826,2.287,2.2891,2.2969,2.3005,2.3069,2.3152,2.3191,2.3184,2.3307,2.3277,2.328,2.3285,2.3329,2.3338,2.3346,2.3244,2.3243,2.3243,0,0,2.2549,2.2594,2.2656,2.27,2.2766,2.2799,2.2814,2.2883,2.2908,2.2987,2.3003,2.3056,2.3162,2.3206,2.3242,2.3318,2.3327,2.3337,2.3362,2.3406,2.3413,2.3419,2.3444,2.3453,2.3344,2.3344,2.3344,0,2.2561,2.2651,2.2686,2.2749,2.2788,2.2809,2.2871,2.2912,2.2995,2.3021,2.3012,2.3144,2.3189,2.3281,2.3299,2.3329,2.3346,2.3328,2.3409,2.3416,2.3423,2.3447,2.3456,2.3344,2.3344,2.3344,2.3344,0,2.2662,2.2725,2.2766,2.2845,2.2889,2.2951,2.2995,2.3036,2.3053,2.3086,2.3166,2.322,2.3291,2.3315,2.3333,2.3409,2.3402,2.3401,2.3384,2.3431,2.3455,2.3464,2.3345,2.3345,2.3345,2.3345,0,0,2.2719,2.2816,2.283,2.2865,2.294,2.2988,2.3051,2.3119,2.3152,2.3209,2.3261,2.335,2.3348,2.3389,2.3413,2.3451,2.3505,2.3445,2.3447,2.3452,2.3591,2.359,2.36,2.3512,2.3514,2.3516,2.3584,0,2.2787,2.2899,2.2932,2.3026,2.3082,2.3103,2.3157,2.3208,2.3241,2.3294,2.3331,2.3392,2.3387,2.3411,2.3451,2.349,2.3533,2.3486,2.356,2.3563,2.3542,2.3613,2.3612,2.3674,2.3594,2.3596,2.3597,0,2.288,2.2937,2.3036,2.3102,2.3127,2.3175,2.324,2.3291,2.3349,2.337,2.3415,2.3435,2.35,2.3481,2.3571,2.3538,2.357,2.3595,2.3598,2.3604,2.3581,2.3619,2.3695,2.3704,2.3612,2.3611,2.361,0,2.2909,2.3011,2.3083,2.3113,2.3191,2.3224,2.3259,2.3315,2.3354,2.3411,2.3436,2.35,2.3534,2.3583,2.3619,2.3602,2.3705,2.3689,2.3723,2.3722,2.3743,2.374,2.3823,2.3767,2.3767,2.3766,2.3766,0,2.2979,2.3039,2.3096,2.3141,2.3207,2.3245,2.331,2.3345,2.3395,2.3446,2.3469,2.3516,2.3561,2.3614,2.3643,2.3712,2.3728,2.3746,2.3753,2.3743,2.374,2.3764,2.3759,2.3769,2.3768,2.3768,2.3767,0,2.3022,2.3064,2.3143,2.3211,2.3229,2.3275,2.3333,2.3377,2.341,2.3474,2.3491,2.3544,2.3608,2.3649,2.373,2.375,2.3824,2.3831,2.3804,2.3807,2.3838,2.3833,2.3936,2.3951,2.3887,2.3887,2.3888,0,2.3063,2.3109,2.3182,2.3217,2.3252,2.3309,2.3348,2.3387,2.3427,2.3496,2.353,2.3595,2.3649,2.3749,2.3795,2.3857,2.3864,2.3896,2.3873,2.3861,2.3862,2.3858,2.3862,2.3898,2.3899,2.3899,2.39,0,2.3131,2.3149,2.3205,2.3267,2.3313,2.3364,2.3416,2.3443,2.3491,2.3534,2.3599,2.3641,2.3723,2.3787,2.3853,2.3888,2.3901,2.3907,2.3917,2.3907,2.3889,2.3897,2.3812,2.3904,2.3903,2.3903,2.3903,2.3903,2.3173,2.3214,2.3271,2.3332,2.3375,2.3422,2.3465,2.3504,2.3559,2.3628,2.3648,2.3715,2.3771,2.3861,2.3897,2.395,2.3946,2.3963,2.3966,2.3969,2.3968,2.3882,2.3963,2.3963,2.3963,2.3963,2.3963,0,2.3241,2.3278,2.3334,2.3404,2.3452,2.346,2.3517,2.3556,2.3615,2.3666,2.3718,2.3792,2.3854,2.3904,2.3967,2.4,2.4007,2.4015,2.4012,2.4019,2.3969,2.3952,2.4007,2.4007,2.4007,2.4007,2.4007,2.4007,2.3281,2.335,2.3375,2.3465,2.3503,2.3568,2.3599,2.3643,2.3683,2.3765,2.3816,2.3848,2.3898,2.3965,2.4022,2.4035,2.4056,2.4062,2.4076,2.4028,2.4023,2.4018,2.4003,2.4067,2.4067,2.4122,2.4123,2.4123]},{"header":{"parameterUnit":"m.s-1","parameterCategory":1,"la1":30.2991,"la2":30.254,"lo1":-89.0895,"lo2":-89.0444,"dy":0.0017,"dx":0.0017,"nx":28,"ny":28,"refTime":"2024-07-29T09:00:00:Z","depth":0,"parameterNumber":3,"parameterNumberName":"V-component_of_WINDS"},"data":[0,0,0,0,0,0,0,0,0,0,0,0,0,0,0,0,0,0,0,0,0,0,0,0,0,0,0,0,0,0,0,0,0,0,0,0,0,0,0,0,0,0,0,0,0,0,0,0,0,0,0,0,0,0,0,0,0,0,4.7168,4.7168,0,4.7165,4.7165,4.7165,4.713,4.7129,4.7128,4.7127,4.7124,4.7125,4.7125,0,0,0,0,0,0,0,0,0,0,0,0,0,4.7142,4.7143,4.7168,4.7168,4.7168,4.7165,4.7165,4.7165,4.713,4.7129,4.7128,4.7127,4.7124,4.7125,4.7126,0,0,0,0,0,0,0,0,0,0,0,0,0,4.7148,4.7143,4.7168,4.715,4.7148,4.7165,4.7165,4.7165,4.713,4.7129,4.7128,4.7127,4.7124,4.7125,4.7126,4.7159,0,0,4.7129,4.7129,0,0,0,0,0,0,0,0,4.7148,4.7149,4.7153,4.7151,4.715,4.7146,4.7155,4.7163,4.7131,4.7137,4.7127,4.7126,4.7133,4.7133,4.7135,4.7158,4.7158,4.7129,4.713,4.713,4.713,0,0,0,0,0,0,0,4.7147,4.7149,4.7167,4.7153,4.7151,4.7142,4.7141,4.7156,4.7142,4.7137,4.7134,4.7134,4.7131,4.7134,4.7135,4.7158,4.7129,4.713,4.7131,4.7131,4.7207,4.7209,0,0,0,0,0,0,4.7149,4.7149,4.7167,4.7166,4.7145,4.7144,4.7143,4.7149,4.7142,4.714,4.7135,4.7133,4.7133,4.7134,4.7135,4.7172,4.713,4.7131,4.7132,4.7206,4.7208,4.7209,0,0,0,0,0,0,4.7149,4.7151,4.7167,4.7157,4.7158,4.7145,4.7152,4.7149,4.7152,4.7141,4.7138,4.7141,4.7132,4.7133,4.7153,4.7171,4.7132,4.7133,4.7204,4.7206,4.7208,4.7247,0,0,0,0,0,0,4.7149,4.7152,4.7164,4.7157,4.7159,4.7185,4.7154,4.715,4.7154,4.7151,4.7145,4.7143,4.7131,4.7151,4.7154,4.7172,4.7133,4.7203,4.7205,4.7208,4.7244,4.725,4.7255,0,0,0,0,0,4.7148,4.7175,4.7165,4.7167,4.7174,4.7186,4.7187,4.7173,4.7156,4.7168,4.7161,4.7143,4.7169,4.7154,4.7156,4.7175,4.7201,4.7205,4.7208,4.7241,4.7249,4.7255,0,0,0,0,0,0,4.7184,4.7174,4.7162,4.7189,4.7189,4.7181,4.7196,4.7181,4.7186,4.7182,4.7164,4.7163,4.7185,4.7182,4.7165,4.7206,4.7182,4.7186,4.7207,4.7214,4.7219,4.7219,4.7134,0,0,0,0,0,4.7195,4.7206,4.7197,4.7221,4.7221,4.7209,4.7213,4.7202,4.7201,4.7201,4.7195,4.7195,4.7203,4.7208,4.7215,4.7244,4.7241,4.7258,4.7263,4.7268,4.7271,4.7285,4.7292,4.7219,4.7219,4.7219,0,0,4.7218,4.7214,4.7222,4.7228,4.7226,4.7238,4.7209,4.7222,4.723,4.7203,4.7221,4.7217,4.7215,4.7239,4.725,4.7237,4.7291,4.7272,4.7276,4.7276,4.7289,4.7296,4.7302,4.7221,4.7221,4.7221,0,0,4.7265,4.7264,4.7283,4.7282,4.7281,4.7272,4.7277,4.7271,4.7267,4.7285,4.7265,4.7274,4.7288,4.7287,4.7289,4.7336,4.732,4.7339,4.7368,4.7382,4.7388,4.7393,4.7408,4.7414,4.7342,4.7342,4.7342,0,4.7294,4.731,4.7295,4.7309,4.7312,4.7288,4.7307,4.7307,4.7308,4.731,4.7297,4.7314,4.7311,4.7334,4.7346,4.7348,4.7352,4.7339,4.7388,4.7393,4.7397,4.7412,4.7418,4.7345,4.7344,4.7344,4.7344,0,4.7345,4.7357,4.7372,4.7373,4.7378,4.7395,4.7381,4.7388,4.7377,4.7369,4.7387,4.7384,4.7389,4.7394,4.7383,4.7415,4.7407,4.7391,4.7367,4.7407,4.742,4.7426,4.7348,4.7347,4.7346,4.7346,0,0,4.7414,4.7407,4.7413,4.7412,4.7409,4.7417,4.7433,4.7438,4.7443,4.7445,4.7457,4.7469,4.7454,4.7456,4.7445,4.7458,4.7494,4.744,4.7439,4.7449,4.7528,4.7539,4.7546,4.7483,4.7484,4.7485,4.7528,0,4.7459,4.7485,4.7471,4.7499,4.7509,4.7486,4.75,4.7499,4.7493,4.75,4.7493,4.7502,4.7482,4.7483,4.7494,4.7487,4.7509,4.7484,4.7494,4.7494,4.7494,4.7553,4.7565,4.7606,4.7533,4.7534,4.7535,0,4.7514,4.7517,4.7546,4.754,4.7544,4.7556,4.7559,4.7567,4.7565,4.756,4.7562,4.7548,4.7562,4.7539,4.7558,4.7541,4.7544,4.7542,4.7543,4.7542,4.7516,4.7553,4.7618,4.7624,4.7543,4.7542,4.7542,0,4.756,4.7572,4.759,4.7591,4.7585,4.7594,4.7592,4.7589,4.7593,4.7596,4.7598,4.7603,4.7605,4.7609,4.7596,4.7581,4.7617,4.7593,4.7612,4.7612,4.762,4.7619,4.7685,4.7624,4.7624,4.7624,4.7624,0,4.761,4.7628,4.7611,4.7622,4.7641,4.7626,4.7645,4.7641,4.7639,4.7648,4.763,4.7639,4.7622,4.763,4.762,4.7637,4.7639,4.7634,4.7631,4.7635,4.7636,4.7636,4.7633,4.7625,4.7625,4.7625,4.7624,0,4.7665,4.7654,4.7672,4.7665,4.7664,4.7678,4.7672,4.7681,4.7674,4.7687,4.7689,4.7677,4.7685,4.7673,4.768,4.7673,4.7696,4.769,4.7697,4.7694,4.7714,4.7712,4.7782,4.779,4.7725,4.7725,4.7726,0,4.7697,4.771,4.7704,4.7709,4.7708,4.7717,4.7721,4.7706,4.771,4.771,4.772,4.7726,4.773,4.7744,4.7736,4.7741,4.7734,4.7758,4.7734,4.7738,4.7733,4.7732,4.7733,4.7762,4.7763,4.7764,4.7764,0,4.7755,4.7749,4.7755,4.7759,4.7764,4.7766,4.7768,4.7773,4.7757,4.7763,4.7771,4.7775,4.7782,4.7788,4.7791,4.7789,4.7774,4.7772,4.7777,4.778,4.7783,4.7781,4.7709,4.777,4.777,4.7769,4.7769,4.7769,4.7798,4.7808,4.7806,4.7813,4.7813,4.7814,4.7823,4.7817,4.7823,4.7827,4.7819,4.7829,4.7827,4.7829,4.7828,4.7836,4.7825,4.7832,4.7834,4.7835,4.7838,4.7783,4.7836,4.7836,4.7836,4.7836,4.7836,0,4.7854,4.7851,4.7858,4.786,4.7866,4.7852,4.7853,4.7858,4.7867,4.7867,4.7871,4.788,4.7887,4.7879,4.7884,4.7892,4.7885,4.7893,4.7892,4.7892,4.7848,4.7843,4.7899,4.7899,4.7899,4.7899,4.7899,4.7898,4.7883,4.79,4.7894,4.791,4.7907,4.7917,4.7918,4.7919,4.7919,4.793,4.7935,4.793,4.7927,4.7931,4.7936,4.7934,4.7936,4.7947,4.7942,4.7901,4.7895,4.7889,4.7884,4.7948,4.7948,4.7985,4.7986,4.7986]}]]